Willimantic, CT

11:53 AM EST on December 12, 2019 (GMT -0500)
Windham

Weather History for KIJD - June, 2019

Change the Weather History Date:

Sunday, June 9, 2019

  Actual Average Record
Temperature  
Mean Temperature 62 °F -  
Max Temperature 77 °F 77 °F 95 °F (2008)
Min Temperature 48 °F 52 °F 36 °F (1957)
Degree Days  
Heating Degree Days 4    
Growing Degree Days 12 (Base 50)    
Moisture  
Dew Point 45 °F    
Average Humidity 57    
Maximum Humidity 93    
Minimum Humidity 30    
Precipitation  
Precipitation 0.00 in - - ()
Sea Level Pressure  
Sea Level Pressure 30.32 in    
Wind  
Wind Speed 4 mph ()    
Max Wind Speed 12 mph    
Max Gust Speed -    
Visibility 10.0 miles    
Events      
Averages and records for this station are not official NWS values.
T = Trace of Precipitation, MM = Missing Value Source: Averaged Metar Reports

Daily Weather History Graph

Daily Weather History Graph

Search for Another Location

Airport or City:

Astronomy

Jun. 09, 2019 Rise Set
Actual Time 5:13 AM EDT 8:22 PM EDT
Civil Twilight 4:40 AM EDT 8:56 PM EDT
Nautical Twilight 3:56 AM EDT 9:39 PM EDT
Astronomical Twilight 3:04 AM EDT 10:31 PM EDT
Moon 11:52 AM EDT (6/9) 12:57 AM EDT (6/9)
Length of Visible Light 16h 16m
Length of Day
15h 08m
Waxing Crescent, 43% of the Moon is Illuminated
Jun 9
Waxing Crescent
Jun 10
First Quarter
Jun 17
Full
Jun 25
Last Quarter
Jul 2
New

Hourly Weather History & Observations

Time (EDT) Temp. Dew Point Humidity Pressure Visibility Wind Dir Wind Speed Gust Speed Precip Events Conditions
12:52 AM 53.1 °F 48.9 °F 86% 30.27 in 10.0 mi NE 3.5 mph - N/A   Clear
1:52 AM 52.0 °F 48.9 °F 89% 30.28 in 10.0 mi NNE 3.5 mph - N/A   Clear
2:52 AM 51.1 °F 48.9 °F 92% 30.29 in 10.0 mi Calm Calm - N/A   Clear
3:52 AM 50.0 °F 46.9 °F 89% 30.30 in 10.0 mi NNE 3.5 mph - N/A   Clear
4:52 AM 48.0 °F 46.0 °F 93% 30.32 in 10.0 mi NE 3.5 mph - N/A   Clear
5:52 AM 48.9 °F 46.0 °F 90% 30.33 in 10.0 mi North 3.5 mph - N/A   Clear
6:52 AM 52.0 °F 48.0 °F 86% 30.34 in 10.0 mi Calm Calm - N/A   Clear
7:52 AM 57.0 °F 50.0 °F 77% 30.35 in 10.0 mi Calm Calm - N/A   Clear
8:52 AM 64.0 °F 50.0 °F 60% 30.35 in 10.0 mi Calm Calm - N/A   Clear
9:52 AM 69.1 °F 44.1 °F 40% 30.36 in 10.0 mi Variable 3.5 mph - N/A   Clear
10:52 AM 71.1 °F 44.1 °F 38% 30.36 in 10.0 mi South 8.1 mph - N/A   Clear
11:52 AM 72.0 °F 43.0 °F 35% 30.35 in 10.0 mi South 3.5 mph - N/A   Clear
12:52 PM 75.0 °F 42.1 °F 31% 30.34 in 10.0 mi Variable 5.8 mph - N/A   Clear
1:52 PM 75.0 °F 42.1 °F 31% 30.32 in 10.0 mi SSW 8.1 mph - N/A   Clear
2:52 PM 75.9 °F 42.1 °F 30% 30.32 in 10.0 mi South 11.5 mph - N/A   Clear
3:52 PM 75.0 °F 42.1 °F 31% 30.31 in 10.0 mi South 9.2 mph - N/A   Clear
4:52 PM 73.9 °F 42.1 °F 32% 30.30 in 10.0 mi South 8.1 mph - N/A   Clear
5:52 PM 72.0 °F 42.1 °F 34% 30.30 in 10.0 mi SSW 10.4 mph - N/A   Clear
6:52 PM 70.0 °F 41.0 °F 35% 30.30 in 10.0 mi South 9.2 mph - N/A   Clear
7:52 PM 66.9 °F 41.0 °F 39% 30.30 in 10.0 mi SSW 6.9 mph - N/A   Clear
8:52 PM 63.0 °F 41.0 °F 45% 30.31 in 10.0 mi South 4.6 mph - N/A   Clear
9:52 PM 60.1 °F 44.1 °F 55% 30.32 in 10.0 mi South 4.6 mph - N/A   Clear
10:52 PM 55.9 °F 45.0 °F 67% 30.31 in 10.0 mi Calm Calm - N/A   Clear
11:52 PM 54.0 °F 46.0 °F 75% 30.29 in 10.0 mi Calm Calm - N/A   Clear